"Pseudo-MPEC" for P22pwrN

Created 2026 Sep 5 9:35:14 UT using Find_Orb

Click here for an explanation of pseudo-MPECs

 
 Astrometry: 
     P22pwrN*0C2026 09 03.35008919 25 13.553+56 24 43.46   ~93A5 21.12wXNEOCPF52
     P22pwrN 0C2026 09 03.35965319 25 16.299+56 24 31.78   ~93A5 21.67wXNEOCPF52
     P22pwrN 0C2026 09 03.36922219 25 19.034+56 24 19.81   ~93A5 21.81wXNEOCPF52
     P22pwrN KC2026 09 04.06830219 29 12.42 +56 10 14.0    ~9435 21.9 GVNEOCPH21
     P22pwrN KC2026 09 04.07529519 29 14.47 +56 10 05.2    ~9435 21.0 GVNEOCPH21
     P22pwrN KC2026 09 04.09486819 29 20.41 +56 09 41.3    ~9435x21.7 GVNEOCPH21
     P22pwrN 3C2026 09 04.30333219 30 31.288+56 05 26.12   ~94BZ 21.60GVNEOCPT14
     P22pwrN 3C2026 09 04.30430719 30 31.593+56 05 24.82   ~94BZ 21.54GVNEOCPT14
     P22pwrN 0B2026 09 04.85139719 33 45.005+55 52 32.66   ~959K       WNEOCP204
     P22pwrN 0B2026 09 04.90075519 34 01.626+55 51 19.65   ~959K 21.7 GWNEOCP204
     P22pwrN KC2026 09 05.07381819 35 07.57 +55 47 12.9    ~9535 21.5 GVNEOCPH21
     P22pwrN KC2026 09 05.07941119 35 09.51 +55 47 04.2    ~9535 21.5 GVNEOCPH21
     P22pwrN KC2026 09 05.08500319 35 11.42 +55 46 56.5    ~9535 21.6 GVNEOCPH21
     P22pwrN 1C2026 09 05.14765119 35 34.688+55 45 28.33   ~953o 21.83GVNEOCPV06
     P22pwrN 1C2026 09 05.14885319 35 35.106+55 45 26.46   ~953o 21.87GVNEOCPV06
     P22pwrN 1C2026 09 05.15005419 35 35.516+55 45 24.70   ~953o 22.41GVNEOCPV06
     P22pwrN 1C2026 09 05.15125419 35 35.912+55 45 23.00   ~953o 22.80GVNEOCPV06
     P22pwrN 1C2026 09 05.15245819 35 36.330+55 45 21.17   ~953o 21.86GVNEOCPV06

Station data:
(204) Schiaparelli Observatory  (N45.868292 E8.769720)  Italy.  Observer L.
   Buzzi. 0.84-m f/3.5 reflector + CCD.
(F52) Pan-STARRS 2, Haleakala  (N20.707382 W156.255910)  US/Hawaii.
   Observers J. Herman, T. Lowe, P. Minguez, A. Schultz, I. Smith. Measurers
   K. Chambers, T. de Boer, J. Fairlamb, H. Gao, M. Huber, C.-C. Lin, E.
   Magnier, Y. Ramanjooloo, R. Wainscoat, R. Weryk. 1.8-m Ritchey-Chrétien +
   CCD.
(H21) Astronomical Research Observatory, Westfield  (N39.483054 W87.968270)
   US/Illinois.  Observer R. Holmes. Measurers S. Foglia, L. Buzzi, T.
   Linder, R. Holmes. 0.40-m f/5.32 astrograph + CCD.
(T14) Mauna Kea-UH/Tholen NEO Follow-Up (CFHT)  (N19.825252 W155.468876)
   US/Hawaii.  Observer R. Weryk. 3.6-m Canada-France-Hawaii Telescope.
(V06) Catalina Sky Survey-Kuiper  (N32.416871 W110.732550)  US/Arizona.
   Measurers T. Beuden, V. F. Carvajal, D. Fay, J. B. Fazekas, D. C. Fuls, A.
   R. Gibbs, A. D. Grauer, H. Gröller, J. K. Hogan, R. A. Kowalski, S. M.
   Larson, G. J. Leonard, D. Rankin, R. L. Seaman, F. C. Shelly, K. W.
   Wierzchoś. 1.55-m reflector + CCD.

Orbital elements:  P22pwrN
   Perihelion 2026 Sep 14.446565 +/- 0.029 TT = 10:43:03.2 (JD 2461297.946565)
Epoch 2026 Sep  5.0 TT = JDT 2461288.5   Earth MOID: 0.0618      AutoNEOCP
M 356.605712343 +/- 0.056           (J2000 ecliptic)
n   0.359314494 +/- 0.00688         Peri.  169.488871 +/- 0.037
a   1.959534396 +/- 0.0256          Node   180.310383 +/- 0.017
e   0.45888349 +/- 0.00668          Incl.   25.939222 +/- 0.18
P   2.74302                H 23.24  G  0.15   U  9.4
q 1.060336403 +/- 0.000512    Q 2.858732390 +/- 0.0506
17 of 18 observations 2026 Sept. 3-5 (43.3 hr); mean residual 0".27
Residuals in arcseconds: 
260903 F52  .07+  .08+    260904 T14  .00   .01-    260905 H21  .06+  .16+    
260903 F52  .05+  .03+    260904 T14  .02+  .01-    260905 V06  .09+  .06-    
260903 F52  .17-  .17-    260904 204  .31-  .07-    260905 V06  .18+  .15-    
260904 H21  .70+  .76+    260904 204  .40-  .30+    260905 V06  .20+  .14-    
260904 H21  .32-  .53+    260905 H21  .36-  .27+    260905 V06  .11+  .06-    
260904 H21( 1.5-  .99+)   260905 H21  .02-  .31-    260905 V06  .20+  .10-    

Ephemerides (geocentric):
Date (UTC) HH   RA             Dec           delta  r     elong  mag " sig PA
---- --------  ------------   ------------  ------ ------ -----  --- --------
2026 09 05 10  19 37 14.977   +55 38 13.77  .16825 1.0652 105.4 21.8 .235  25
2026 09 05 11  19 37 30.824   +55 37 07.96  .16791 1.0652 105.4 21.8 .237  27
2026 09 05 12  19 37 46.728   +55 36 01.70  .16758 1.0652 105.4 21.8 .239  28
2026 09 05 13  19 38 02.688   +55 34 54.98  .16725 1.0651 105.5 21.8 .242  29
2026 09 05 14  19 38 18.705   +55 33 47.80  .16691 1.0651 105.5 21.8 .244  30
2026 09 05 15  19 38 34.778   +55 32 40.17  .16658 1.0650 105.5 21.8 .246  31
2026 09 05 16  19 38 50.909   +55 31 32.07  .16625 1.0650 105.6 21.8 .249  32
2026 09 05 17  19 39 07.098   +55 30 23.51  .16591 1.0649 105.6 21.8 .251  33
2026 09 05 18  19 39 23.344   +55 29 14.47  .16558 1.0649 105.7 21.8 .254  34
2026 09 05 19  19 39 39.647   +55 28 04.96  .16525 1.0648 105.7 21.8 .257  35
2026 09 05 20  19 39 56.009   +55 26 54.97  .16492 1.0648 105.7 21.8 .260  36
2026 09 05 21  19 40 12.429   +55 25 44.50  .16458 1.0648 105.8 21.8 .263  37
2026 09 05 22  19 40 28.908   +55 24 33.55  .16425 1.0647 105.8 21.8 .266  38
2026 09 05 23  19 40 45.445   +55 23 22.11  .16392 1.0647 105.9 21.8 .269  39
2026 09 06 00  19 41 02.041   +55 22 10.17  .16359 1.0646 105.9 21.8 .272  40
2026 09 06 01  19 41 18.696   +55 20 57.74  .16325 1.0646 105.9 21.8 .275  41
2026 09 06 02  19 41 35.411   +55 19 44.81  .16292 1.0645 106.0 21.8 .279  41
2026 09 06 03  19 41 52.185   +55 18 31.37  .16259 1.0645 106.0 21.7 .282  42
2026 09 06 04  19 42 09.018   +55 17 17.43  .16226 1.0645 106.1 21.7 .286  43
2026 09 06 05  19 42 25.912   +55 16 02.98  .16192 1.0644 106.1 21.7 .289  44
2026 09 06 06  19 42 42.866   +55 14 48.01  .16159 1.0644 106.1 21.7 .293  44
2026 09 06 07  19 42 59.880   +55 13 32.52  .16126 1.0643 106.2 21.7 .296  45
2026 09 06 08  19 43 16.955   +55 12 16.51  .16093 1.0643 106.2 21.7 .300  45
2026 09 06 09  19 43 34.090   +55 10 59.98  .16059 1.0643 106.3 21.7 .304  46
2026 09 06 10  19 43 51.287   +55 09 42.91  .16026 1.0642 106.3 21.7 .307  47
2026 09 06 11  19 44 08.545   +55 08 25.31  .15993 1.0642 106.4 21.7 .311  47
2026 09 06 12  19 44 25.864   +55 07 07.17  .15960 1.0641 106.4 21.7 .315  48
2026 09 06 13  19 44 43.245   +55 05 48.48  .15927 1.0641 106.4 21.7 .319  48
2026 09 06 14  19 45 00.688   +55 04 29.25  .15893 1.0641 106.5 21.7 .323  49
2026 09 06 15  19 45 18.194   +55 03 09.47  .15860 1.0640 106.5 21.7 .326  49
2026 09 06 16  19 45 35.761   +55 01 49.13  .15827 1.0640 106.6 21.7 .330  50
2026 09 06 17  19 45 53.391   +55 00 28.23  .15794 1.0639 106.6 21.7 .334  50
2026 09 06 18  19 46 11.084   +54 59 06.76  .15761 1.0639 106.7 21.7 .338  50
2026 09 06 19  19 46 28.840   +54 57 44.73  .15728 1.0639 106.7 21.7 .342  51
2026 09 06 20  19 46 46.659   +54 56 22.12  .15694 1.0638 106.8 21.7 .346  51
2026 09 06 21  19 47 04.542   +54 54 58.94  .15661 1.0638 106.8 21.7 .350  51
2026 09 06 22  19 47 22.488   +54 53 35.18  .15628 1.0638 106.8 21.6 .354  52
2026 09 06 23  19 47 40.498   +54 52 10.83  .15595 1.0637 106.9 21.6 .358  52
2026 09 07 00  19 47 58.572   +54 50 45.88  .15562 1.0637 106.9 21.6 .362  52
2026 09 07 01  19 48 16.711   +54 49 20.35  .15529 1.0636 107.0 21.6 .366  52
2026 09 07 02  19 48 34.914   +54 47 54.21  .15496 1.0636 107.0 21.6 .370  52
2026 09 07 03  19 48 53.182   +54 46 27.46  .15463 1.0636 107.1 21.6 .373  53
2026 09 07 04  19 49 11.515   +54 45 00.11  .15430 1.0635 107.1 21.6 .377  53
2026 09 07 05  19 49 29.914   +54 43 32.15  .15396 1.0635 107.2 21.6 .381  53
2026 09 07 06  19 49 48.378   +54 42 03.56  .15363 1.0635 107.2 21.6 .385  53
2026 09 07 07  19 50 06.907   +54 40 34.35  .15330 1.0634 107.3 21.6 .389  53
2026 09 07 08  19 50 25.503   +54 39 04.51  .15297 1.0634 107.3 21.6 .393  53
2026 09 07 09  19 50 44.165   +54 37 34.04  .15264 1.0633 107.4 21.6 .397  53